timestamp,wind_dir_avg,wind_spd_avg,wind_spd_max_dir,wind_spd_gust,battery_voltage,lat,long
2021-03-09 00:04:01+00:00,353.0,6.13,351.0,6.6,12.57,47.59359,-54.27349
2021-03-09 00:14:01+00:00,0.0,5.67,354.0,6.74,12.49,47.59359,-54.27349
2021-03-09 00:24:01+00:00,0.0,6.05,0.0,6.73,12.49,47.59359,-54.27349
2021-03-09 00:34:01+00:00,1.0,6.94,6.0,7.91,12.49,47.59359,-54.27349
2021-03-09 00:44:01+00:00,3.0,5.63,6.0,6.18,12.49,47.59359,-54.27349
2021-03-09 00:54:01+00:00,2.0,5.87,5.0,6.59,12.49,47.59359,-54.27349
2021-03-09 01:04:01+00:00,3.0,6.64,359.0,7.38,12.49,47.59359,-54.27349
2021-03-09 01:14:01+00:00,1.0,6.56,3.0,7.66,12.49,47.59359,-54.27349
2021-03-09 01:24:01+00:00,1.0,7.08,2.0,7.91,12.49,47.59359,-54.27349
2021-03-09 01:34:01+00:00,358.0,6.46,0.0,7.45,12.49,47.59359,-54.27349
2021-03-09 01:44:01+00:00,0.0,5.47,359.0,6.78,12.49,47.59359,-54.27349
2021-03-09 01:54:01+00:00,357.0,5.54,356.0,6.18,12.49,47.59359,-54.27349
2021-03-09 02:04:01+00:00,11.0,5.91,20.0,6.66,12.49,47.59359,-54.27349
2021-03-09 02:14:01+00:00,357.0,6.29,356.0,7.13,12.41,47.59359,-54.27349
2021-03-09 02:24:01+00:00,357.0,6.38,1.0,7.25,12.41,47.59359,-54.27349
2021-03-09 02:34:01+00:00,14.0,6.46,17.0,7.17,12.41,47.59359,-54.27349
2021-03-09 02:44:01+00:00,24.0,6.46,22.0,7.4,12.41,47.59359,-54.27349
2021-03-09 02:54:01+00:00,24.0,7.02,21.0,7.76,12.41,47.59359,-54.27349
2021-03-09 03:04:01+00:00,29.0,6.43,28.0,7.01,12.41,47.59359,-54.27349
2021-03-09 03:14:01+00:00,22.0,6.94,20.0,7.53,12.41,47.59359,-54.27349
2021-03-09 03:24:01+00:00,19.0,6.19,18.0,7.42,12.41,47.59359,-54.27349
2021-03-09 03:34:01+00:00,20.0,6.24,21.0,7.46,12.41,47.59359,-54.27349
2021-03-09 03:44:01+00:00,19.0,5.82,19.0,6.44,12.41,47.59359,-54.27349
2021-03-09 03:54:01+00:00,28.0,6.09,17.0,6.84,12.41,47.59359,-54.27349
2021-03-09 04:04:01+00:00,23.0,6.32,27.0,7.0,12.41,47.59359,-54.27349
2021-03-09 04:14:01+00:00,24.0,6.06,17.0,7.46,12.41,47.59359,-54.27349
2021-03-09 04:24:01+00:00,22.0,6.51,23.0,7.32,12.41,47.59359,-54.27349
2021-03-09 04:34:01+00:00,26.0,6.81,25.0,7.93,12.41,47.59359,-54.27349
2021-03-09 04:44:01+00:00,26.0,6.39,28.0,7.17,12.41,47.59359,-54.27349
2021-03-09 04:54:01+00:00,16.0,6.27,15.0,7.24,12.41,47.59359,-54.27349
2021-03-09 05:04:01+00:00,15.0,7.25,13.0,8.41,12.41,47.59359,-54.27349
2021-03-09 05:14:01+00:00,16.0,7.16,15.0,7.8,12.41,47.59359,-54.27349
2021-03-09 05:24:01+00:00,10.0,6.67,19.0,8.93,12.41,47.59359,-54.27349
2021-03-09 05:34:01+00:00,26.0,7.68,24.0,8.77,12.41,47.59359,-54.27349
2021-03-09 05:44:01+00:00,18.0,6.39,19.0,7.84,12.41,47.59359,-54.27349
2021-03-09 05:54:01+00:00,15.0,7.76,18.0,8.65,12.41,47.59359,-54.27349
2021-03-09 06:04:01+00:00,7.0,8.1,4.0,9.49,12.41,47.59359,-54.27349
2021-03-09 06:14:01+00:00,16.0,9.02,12.0,9.83,12.41,47.59359,-54.27349
2021-03-09 06:24:01+00:00,15.0,10.35,16.0,11.5,12.41,47.59359,-54.27349
2021-03-09 06:34:01+00:00,11.0,9.29,11.0,10.82,12.41,47.59359,-54.27349
2021-03-09 06:44:01+00:00,11.0,8.97,11.0,10.5,12.41,47.59359,-54.27349
2021-03-09 06:54:01+00:00,0.0,8.42,356.0,10.19,12.41,47.59359,-54.27349
2021-03-09 07:04:01+00:00,8.0,8.84,21.0,9.86,12.41,47.59359,-54.27349
2021-03-09 07:14:01+00:00,3.0,8.91,0.0,10.29,12.33,47.59359,-54.27349
2021-03-09 07:24:01+00:00,7.0,8.53,12.0,10.03,12.33,47.59359,-54.27349
2021-03-09 07:34:01+00:00,8.0,7.63,30.0,9.8,12.33,47.59359,-54.27349
2021-03-09 07:44:01+00:00,23.0,8.37,21.0,10.14,12.33,47.59359,-54.27349
2021-03-09 07:54:01+00:00,356.0,6.97,357.0,8.22,12.33,47.59359,-54.27349
2021-03-09 08:04:01+00:00,22.0,9.77,29.0,12.48,12.33,47.59359,-54.27349
2021-03-09 08:14:01+00:00,27.0,10.2,32.0,11.72,12.33,47.59359,-54.27349
2021-03-09 08:24:01+00:00,24.0,11.38,24.0,12.92,12.33,47.59359,-54.27349
2021-03-09 08:34:01+00:00,5.0,9.51,0.0,10.75,12.33,47.59359,-54.27349
2021-03-09 08:44:01+00:00,14.0,10.16,27.0,11.75,12.33,47.59359,-54.27349
2021-03-09 08:54:01+00:00,27.0,11.66,29.0,13.23,12.33,47.59359,-54.27349
2021-03-09 09:04:01+00:00,29.0,11.22,30.0,12.67,12.33,47.59359,-54.27349
2021-03-09 09:14:01+00:00,29.0,10.92,27.0,12.01,12.25,47.59359,-54.27349
2021-03-09 09:24:01+00:00,17.0,8.73,34.0,11.26,12.25,47.59359,-54.27349
2021-03-09 09:34:01+00:00,30.0,10.02,34.0,11.77,12.25,47.59359,-54.27349
2021-03-09 09:44:01+00:00,358.0,8.14,355.0,9.41,12.25,47.59359,-54.27349
2021-03-09 09:54:01+00:00,23.0,10.25,28.0,12.48,12.25,47.59359,-54.27349
2021-03-09 10:04:01+00:00,15.0,10.06,28.0,11.95,12.25,47.59359,-54.27349
2021-03-09 10:14:01+00:00,26.0,11.33,29.0,12.88,12.25,47.59359,-54.27349
2021-03-09 10:24:01+00:00,3.0,10.64,27.0,12.21,12.25,47.59359,-54.27349
2021-03-09 10:34:01+00:00,33.0,10.32,33.0,12.05,12.25,47.59359,-54.27349
2021-03-09 10:44:01+00:00,1.0,10.31,1.0,12.78,12.25,47.59359,-54.27349
2021-03-09 10:54:01+00:00,1.0,9.5,359.0,11.54,12.25,47.59359,-54.27349
2021-03-09 11:04:01+00:00,3.0,9.2,23.0,11.45,12.25,47.59359,-54.27349
2021-03-09 11:14:01+00:00,12.0,7.53,35.0,9.52,12.33,47.59359,-54.27349
2021-03-09 11:24:01+00:00,12.0,8.95,29.0,10.99,12.33,47.59359,-54.27349
2021-03-09 11:34:01+00:00,11.0,8.57,34.0,10.78,12.33,47.59359,-54.27349
2021-03-09 11:44:01+00:00,9.0,9.08,19.0,10.84,12.33,47.59359,-54.27349
2021-03-09 11:54:01+00:00,7.0,8.3,32.0,10.24,12.33,47.59359,-54.27349
2021-03-09 12:04:01+00:00,33.0,10.17,35.0,11.39,12.33,47.59359,-54.27349
2021-03-09 12:14:01+00:00,10.0,8.1,37.0,9.61,12.97,47.59359,-54.27349
2021-03-09 12:24:01+00:00,1.0,8.6,30.0,9.98,12.97,47.59359,-54.27349
2021-03-09 12:34:01+00:00,21.0,7.04,37.0,8.81,12.97,47.59359,-54.27349
2021-03-09 12:44:01+00:00,347.0,8.75,347.0,9.63,12.97,47.59359,-54.27349
2021-03-09 12:54:01+00:00,355.0,9.11,343.0,10.16,12.97,47.59359,-54.27349
2021-03-09 13:04:01+00:00,11.0,8.18,33.0,10.77,12.97,47.59359,-54.27349
2021-03-09 13:14:01+00:00,6.0,8.78,31.0,10.51,13.76,47.59359,-54.27349
2021-03-09 13:24:01+00:00,357.0,7.5,355.0,8.56,13.76,47.59359,-54.27349
2021-03-09 13:34:01+00:00,354.0,6.9,352.0,8.02,13.76,47.59359,-54.27349
2021-03-09 13:44:01+00:00,3.0,7.8,27.0,9.43,13.76,47.59359,-54.27349
2021-03-09 13:54:01+00:00,358.0,5.66,356.0,6.77,13.76,47.59359,-54.27349
2021-03-09 14:04:01+00:00,352.0,5.68,346.0,6.19,13.76,47.59359,-54.27349
2021-03-09 14:14:01+00:00,336.0,5.31,332.0,6.18,13.68,47.59359,-54.27349
2021-03-09 14:24:01+00:00,353.0,4.91,348.0,5.54,13.68,47.59359,-54.27349
2021-03-09 14:34:01+00:00,335.0,4.39,328.0,5.58,13.68,47.59359,-54.27349
2021-03-09 14:44:01+00:00,319.0,7.19,316.0,8.21,13.68,47.59359,-54.27349
2021-03-09 14:54:01+00:00,321.0,6.57,313.0,8.01,13.68,47.59359,-54.27349
2021-03-09 15:04:01+00:00,317.0,5.56,323.0,6.51,13.68,47.59359,-54.27349
2021-03-09 15:14:01+00:00,319.0,6.97,315.0,7.54,14.16,47.59359,-54.27349
2021-03-09 15:24:01+00:00,325.0,7.0,326.0,8.0,14.16,47.59359,-54.27349
2021-03-09 15:34:01+00:00,326.0,5.41,326.0,6.48,14.16,47.59359,-54.27349
2021-03-09 15:44:01+00:00,321.0,5.01,323.0,6.37,14.16,47.59359,-54.27349
2021-03-09 15:54:01+00:00,325.0,5.37,325.0,6.16,14.16,47.59359,-54.27349
2021-03-09 16:04:01+00:00,328.0,6.24,330.0,7.28,14.16,47.59359,-54.27349
2021-03-09 16:14:01+00:00,321.0,5.53,329.0,6.8,13.68,47.59359,-54.27349
2021-03-09 16:24:01+00:00,303.0,5.75,309.0,7.05,13.68,47.59359,-54.27349
2021-03-09 16:34:01+00:00,297.0,6.81,298.0,7.36,13.68,47.59359,-54.27349
2021-03-09 16:44:01+00:00,298.0,6.5,294.0,7.69,13.68,47.59359,-54.27349
2021-03-09 16:54:01+00:00,298.0,7.45,303.0,8.15,13.68,47.59359,-54.27349
2021-03-09 17:04:01+00:00,303.0,7.34,302.0,8.6,13.68,47.59359,-54.27349
2021-03-09 17:14:01+00:00,318.0,6.79,309.0,7.87,13.68,47.59359,-54.27349
2021-03-09 17:24:01+00:00,300.0,7.18,307.0,9.27,13.68,47.59359,-54.27349
2021-03-09 17:34:01+00:00,308.0,8.01,304.0,9.05,13.68,47.59359,-54.27349
2021-03-09 17:44:01+00:00,289.0,5.99,290.0,6.87,13.68,47.59359,-54.27349
2021-03-09 17:54:01+00:00,282.0,4.62,287.0,5.44,13.68,47.59359,-54.27349
2021-03-09 18:04:01+00:00,290.0,5.71,289.0,7.57,13.68,47.59359,-54.27349
2021-03-09 18:14:01+00:00,291.0,6.74,285.0,8.58,13.76,47.59359,-54.27349
2021-03-09 18:24:01+00:00,288.0,6.21,288.0,7.03,13.76,47.59359,-54.27349
2021-03-09 18:34:01+00:00,271.0,6.38,267.0,7.72,13.76,47.59359,-54.27349
2021-03-09 18:44:01+00:00,271.0,5.74,276.0,6.65,13.76,47.59359,-54.27349
2021-03-09 18:54:01+00:00,275.0,6.41,277.0,7.69,13.76,47.59359,-54.27349
2021-03-09 19:04:01+00:00,265.0,6.46,272.0,8.56,13.76,47.59359,-54.27349
2021-03-09 19:14:01+00:00,289.0,5.24,283.0,6.97,14.32,47.59359,-54.27349
2021-03-09 19:24:01+00:00,271.0,7.21,272.0,8.17,14.32,47.59359,-54.27349
2021-03-09 19:34:01+00:00,280.0,5.79,266.0,6.85,14.32,47.59359,-54.27349
2021-03-09 19:44:01+00:00,277.0,6.43,277.0,7.31,14.32,47.59359,-54.27349
2021-03-09 19:54:01+00:00,276.0,5.82,274.0,6.77,14.32,47.59359,-54.27349
2021-03-09 20:04:01+00:00,290.0,4.32,300.0,4.78,14.32,47.59359,-54.27349
2021-03-09 20:14:01+00:00,265.0,5.01,262.0,5.87,13.76,47.59359,-54.27349
2021-03-09 20:24:01+00:00,278.0,6.11,277.0,6.95,13.76,47.59359,-54.27349
2021-03-09 20:34:01+00:00,274.0,4.86,279.0,5.84,13.76,47.59359,-54.27349
2021-03-09 20:44:01+00:00,256.0,5.68,254.0,6.44,13.76,47.59359,-54.27349
2021-03-09 20:54:01+00:00,265.0,5.85,269.0,6.49,13.76,47.59359,-54.27349
2021-03-09 21:04:01+00:00,261.0,6.3,259.0,7.25,13.76,47.59359,-54.27349
2021-03-09 21:14:01+00:00,264.0,5.54,266.0,6.22,13.6,47.59359,-54.27349
2021-03-09 21:24:01+00:00,258.0,5.82,256.0,6.38,13.6,47.59359,-54.27349
2021-03-09 21:34:01+00:00,255.0,4.95,251.0,5.57,13.6,47.59359,-54.27349
2021-03-09 21:44:01+00:00,256.0,5.42,260.0,6.2,13.6,47.59359,-54.27349
2021-03-09 21:54:01+00:00,254.0,5.37,255.0,6.49,13.6,47.59359,-54.27349
2021-03-09 22:04:01+00:00,257.0,6.36,253.0,7.07,13.6,47.59359,-54.27349
2021-03-09 22:14:01+00:00,253.0,7.04,256.0,8.75,12.81,47.59359,-54.27349
2021-03-09 22:24:01+00:00,258.0,6.52,252.0,7.29,12.81,47.59359,-54.27349
2021-03-09 22:34:01+00:00,241.0,6.52,244.0,7.65,12.81,47.59359,-54.27349
2021-03-09 22:44:01+00:00,239.0,6.42,240.0,8.08,12.81,47.59359,-54.27349
2021-03-09 22:54:01+00:00,242.0,6.59,247.0,7.4,12.81,47.59359,-54.27349
2021-03-09 23:04:01+00:00,245.0,6.06,236.0,7.17,12.81,47.59359,-54.27349
2021-03-09 23:14:01+00:00,247.0,6.56,246.0,7.63,12.49,47.59359,-54.27349
2021-03-09 23:24:01+00:00,250.0,6.8,245.0,7.7,12.49,47.59359,-54.27349
2021-03-09 23:34:01+00:00,254.0,6.21,248.0,7.32,12.49,47.59359,-54.27349
2021-03-09 23:44:01+00:00,255.0,8.29,256.0,9.06,12.49,47.59359,-54.27349
2021-03-09 23:54:01+00:00,257.0,7.08,258.0,8.26,12.49,47.59359,-54.27349
